Wind_Speed
2 3 5 7 9 10 10 10 9 8 7 10 11 11 11 9 11 9 9 9 8 15 17 16 23 17 25 19 24 20 23 25 23 18 13 12 13 18 18 15 13 11 11 12 15
2 1 1 2 5 6 8 8 8 7 5 7 10 10 10 10 11 8 8 12 13 15 16 10 19 13 12 20 20 24 21 24 17 10 10 13 17 18 15 13 15 12 10 8 19
6 6 5 3 2 3 4 6 6 6 5 4 7 8 9 9 8 5 11 15 16 13 8 8 8 11 13 16 20 18 24 21 13 10 11 18 15 20 19 12 9 8 9 14 17
6 7 6 6 5 3 2 3 4 5 5 5 5 6 8 8 7 5 5 13 13 9 17 21 16 17 16 18 16 22 19 14 11 12 13 15 14 14 12 8 5 5 11 16 15
6 6 7 6 6 4 3 0 2 3 4 5 5 5 7 7 3 3 2 11 10 10 17 14 13 17 15 15 16 14 18 15 14 17 11 12 14 15 11 12 12 12 13 15 14
7 6 7 7 6 4 3 1 2 2 4 6 6 5 7 7 6 3 3 4 3 5 13 6 6 10 15 17 16 15 16 7 10 21 18 13 14 16 11 12 14 13 13 14 14
8 7 6 6 6 5 3 1 1 2 2 4 5 5 1 6 4 8 5 4 2 2 11 3 5 8 6 5 10 11 11 7 10 15 18 13 9 8 10 13 14 12 11 11 11
9 8 7 7 6 5 4 3 2 2 1 1 2 2 3 2 2 7 8 6 5 2 6 9 4 11 9 8 2 2 7 2 10 11 17 13 11 9 8 9 10 12 10 9 8
10 9 8 8 7 6 5 4 2 2 2 3 2 2 2 2 3 5 8 9 5 5 3 6 7 8 9 10 5 17 12 6 9 9 5 9 11 12 10 5 4 8 10 8 8
11 11 10 10 9 8 7 5 4 4 5 4 5 4 3 2 2 5 10 11 7 7 8 1 11 9 14 15 14 17 12 10 9 10 4 9 9 7 9 12 6 5 6 7 7
11 11 12 12 12 11 10 9 9 8 7 7 8 7 5 7 4 4 7 13 13 9 9 10 12 15 14 12 8 6 5 4 11 9 7 6 5 2 4 6 12 9 6 5 6
10 10 11 12 12 12 13 14 13 11 10 8 10 10 11 8 9 6 7 11 14 15 10 9 12 11 11 19 7 7 10 12 9 11 18 24 19 10 3 2 7 9 7 5 6
8 9 10 10 10 11 12 10 11 9 8 9 9 9 10 10 8 9 9 10 13 14 16 11 10 10 15 12 9 7 8 8 5 10 13 12 10 8 4 2 3 10 9 5 4
9 9 9 8 8 8 7 6 5 5 6 5 7 7 8 10 11 10 9 11 9 9 11 12 9 6 4 14 7 3 4 2 3 9 6 4 6 10 12 13 5 6 12 7 5
12 11 10 10 10 8 8 7 5 3 4 4 4 5 8 8 9 10 11 11 13 11 10 10 11 8 9 17 15 6 3 8 16 8 4 4 8 7 12 14 14 6 3 10 12
14 13 13 12 10 9 8 7 8 7 8 6 6 4 5 5 8 8 11 13 13 8 6 3 6 7 5 9 3 21 14 9 11 8 2 7 3 4 10 18 20 5 7 9 13
16 15 15 13 13 14 12 8 8 10 9 11 9 9 7 5 6 7 12 12 11 12 12 13 10 9 7 6 7 17 12 9 9 8 7 2 2 3 13 17 17 5 8 12 12
19 18 16 15 17 15 13 12 12 16 15 13 12 7 7 7 7 9 7 7 9 10 7 9 9 10 9 5 17 22 17 12 13 13 5 5 7 8 11 14 12 13 11 9 8
26 24 23 19 18 17 15 13 17 18 17 14 12 7 8 8 9 9 10 9 8 10 12 15 13 9 7 7 13 19 12 14 11 6 4 2 10 9 12 19 12 11 11 12 7
30 30 28 26 25 23 19 17 21 22 20 18 11 11 17 16 15 13 11 9 10 10 13 13 11 10 9 11 10 12 15 13 12 12 10 2 8 14 12 14 15 10 13 11 6
27 29 32 32 30 29 23 19 26 25 26 24 22 19 14 20 21 17 11 8 13 15 14 17 12 13 10 6 4 3 5 11 14 17 9 2 10 7 13 13 11 10 13 13 4
29 28 31 33 33 32 26 23 30 31 32 33 29 25 24 20 18 19 15 17 16 13 18 18 15 19 16 13 14 13 9 12 18 15 12 12 5 14 13 12 14 17 20 20 17
33 32 29 31 33 33 31 31 35 38 38 36 34 31 30 28 25 25 23 24 23 21 23 22 18 18 21 19 17 13 17 14 14 15 18 17 13 13 17 20 20 21 23 24 23
32 34 33 31 33 34 33 30 33 38 41 40 31 30 30 35 31 33 33 33 31 29 28 29 27 26 23 23 25 22 21 23 22 18 21 18 17 15 23 26 26 24 25 26 26
30 28 27 29 29 31 34 34 34 38 41 42 39 34 32 33 37 39 40 39 37 39 37 35 32 26 22 27 25 30 23 29 31 28 29 30 27 23 26 31 33 34 31 27 29
32 30 27 30 29 27 28 32 35 39 40 41 36 31 33 33 33 35 37 41 44 44 44 44 37 30 28 28 32 29 29 32 32 35 33 39 40 41 44 34 35 36 32 34 34
34 34 31 32 31 27 31 34 34 39 38 38 36 31 28 27 28 32 35 37 39 43 42 41 36 31 31 28 29 34 38 42 38 37 39 37 43 50 49 46 48 47 50 47 46
Wind_Direction
104 73 47 46 50 56 53 54 61 81 101 112 109 108 110 113 108 112 101 89 79 88 85 82 69 60 64 75 81 79 58 48 47 63 59 135 131 141 143 128 130 123 122 112 120
231 250 335 16 26 40 49 50 53 69 92 114 120 113 117 129 124 134 110 79 82 92 99 82 90 56 80 75 68 55 50 25 40 59 84 102 151 132 129 127 121 125 120 105 119
255 259 261 269 302 356 27 44 50 59 64 94 131 130 126 124 113 120 106 87 90 102 75 93 77 111 122 99 80 65 49 19 49 87 82 80 96 138 141 159 133 131 111 122 124
246 250 254 258 256 252 314 35 41 56 69 74 121 145 140 147 120 109 84 98 92 79 72 116 114 130 106 90 85 73 59 26 49 68 74 74 89 116 141 154 160 137 120 128 121
232 243 246 246 245 247 258 297 79 66 74 74 93 145 159 168 152 129 21 104 94 74 83 116 139 143 110 109 91 78 64 43 48 60 78 100 104 106 106 112 113 119 131 127 120
231 228 238 234 231 225 231 207 82 78 66 75 90 127 172 177 192 182 294 108 93 86 85 76 142 142 116 109 112 84 76 44 74 50 55 61 83 88 102 114 118 124 129 124 118
228 209 204 194 189 182 179 180 119 103 67 59 65 96 136 190 219 195 231 271 150 354 87 106 149 104 92 59 133 100 86 74 84 56 61 46 48 88 97 107 111 113 119 115 124
220 209 198 197 196 191 181 180 160 140 124 77 62 51 104 171 204 222 213 237 255 239 89 142 122 70 72 2 14 286 114 48 73 105 73 65 66 92 94 101 116 121 123 129 124
220 219 214 213 206 213 213 215 233 224 221 210 234 297 18 160 184 196 192 218 234 282 270 152 95 71 60 49 66 100 101 79 80 67 92 81 47 78 97 91 107 124 131 140 138
225 224 223 224 227 230 237 242 258 261 263 252 249 260 300 288 206 184 197 203 194 255 274 329 128 103 97 81 81 92 86 109 90 157 117 89 55 18 103 115 125 138 138 148 168
231 231 234 234 234 238 241 234 232 238 243 269 260 253 255 277 228 202 190 202 191 205 252 144 157 103 90 85 59 55 27 177 160 111 49 51 289 131 28 100 105 106 129 163 169
228 230 232 235 235 233 232 233 243 244 246 242 261 259 261 238 252 195 183 196 198 190 204 146 128 103 99 113 73 346 23 47 99 104 89 56 76 43 127 206 125 104 97 113 147
217 221 223 223 221 220 226 230 232 228 236 238 247 229 252 239 221 200 185 191 200 202 192 183 139 132 136 133 105 358 356 88 336 13 68 62 38 19 45 193 220 153 131 129 151
205 207 206 204 197 199 190 191 194 204 215 211 220 236 228 228 220 197 190 191 189 203 217 221 184 188 210 176 142 74 308 59 310 356 39 11 343 2 4 20 227 225 145 144 158
216 215 211 208 209 208 214 202 183 187 168 223 218 234 233 227 219 212 189 194 189 205 221 236 222 194 157 167 204 143 175 214 215 230 278 345 5 327 1 7 9 233 143 145 139
226 224 223 222 215 209 208 218 189 185 160 194 185 186 218 215 216 203 197 192 191 181 186 148 93 82 83 189 196 120 116 109 151 186 22 213 320 353 343 347 353 266 165 151 144
233 227 229 225 226 221 212 194 215 217 204 193 179 178 180 206 194 194 187 182 177 178 185 174 157 135 125 113 159 165 149 159 137 144 118 287 190 329 328 335 26 102 137 144 151
237 238 234 230 232 229 223 201 208 228 219 194 178 181 189 195 198 179 184 170 173 193 184 181 164 171 151 140 165 172 177 179 117 129 123 244 274 305 294 304 345 28 56 120 147
236 241 241 238 236 232 225 211 217 236 250 243 195 197 199 208 220 211 191 185 180 203 181 201 207 212 168 163 173 200 210 262 135 98 341 66 221 252 269 296 310 8 22 37 54
237 238 241 240 239 238 234 205 227 222 244 254 228 205 205 205 205 201 195 202 207 210 221 214 213 244 181 172 175 188 219 243 174 146 175 259 285 282 308 316 321 345 358 13 25
235 238 238 238 239 240 238 212 222 226 230 244 238 234 233 226 230 216 202 224 226 212 222 229 206 228 221 194 207 203 219 208 205 185 185 263 312 257 287 332 337 315 305 304 326
233 238 237 236 237 238 234 212 214 232 225 234 239 240 237 238 230 237 224 239 247 249 240 227 216 227 250 254 219 194 169 223 205 215 230 241 232 249 267 274 272 281 290 302 309
233 232 232 235 235 234 230 222 222 225 239 228 233 240 243 238 219 230 225 240 242 246 262 253 234 226 233 238 247 207 198 212 215 213 210 233 237 256 248 244 264 277 286 296 297
239 234 231 230 232 234 233 229 229 230 240 246 230 233 233 232 230 227 231 235 234 228 238 251 253 240 236 236 240 242 224 223 232 229 223 240 245 234 242 242 245 255 265 277 286
245 244 241 241 240 235 236 229 229 233 239 243 243 230 229 228 228 232 232 238 235 242 251 259 263 269 260 250 244 224 232 230 233 232 219 218 235 242 245 245 242 254 250 251 263
245 247 240 239 238 236 238 239 237 239 240 245 250 251 247 240 239 236 236 242 248 245 254 263 270 274 271 263 254 232 225 225 237 233 231 214 227 237 240 242 249 248 245 243 240
240 246 243 242 239 233 236 237 241 248 248 250 249 244 248 250 245 245 244 246 249 254 258 261 262 265 265 259 250 246 234 232 232 239 240 225 228 235 244 248 245 250 255 263 264
Height
5914 5914 5914 5914 5915 5914 5913 5912 5912 5912 5912 5912 5913 5914 5915 5914 5915 5914 5913 5914 5916 5917 5917 5916 5913 5909 5909 5910 5907 5909 5908 5905 5906 5911 5913 5913 5914 5916 5917 5919 5920 5922 5923 5926 5929
5914 5915 5915 5915 5915 5916 5915 5915 5914 5914 5914 5914 5914 5915 5916 5916 5915 5914 5916 5917 5919 5921 5922 5920 5920 5920 5916 5912 5912 5909 5908 5909 5912 5917 5918 5916 5916 5919 5922 5921 5922 5924 5925 5926 5929
5914 5915 5915 5916 5917 5917 5917 5916 5916 5916 5915 5915 5916 5916 5917 5918 5919 5916 5919 5920 5923 5924 5922 5920 5922 5925 5920 5916 5913 5912 5909 5915 5917 5919 5918 5918 5918 5920 5921 5922 5925 5926 5928 5929 5931
5914 5914 5915 5915 5916 5917 5917 5917 5916 5917 5917 5917 5917 5917 5918 5919 5921 5919 5920 5924 5924 5924 5927 5925 5924 5923 5922 5919 5917 5915 5913 5919 5919 5917 5917 5919 5922 5922 5924 5926 5927 5928 5929 5931 5933
5913 5914 5914 5915 5916 5916 5917 5918 5917 5917 5918 5918 5919 5919 5919 5919 5920 5919 5920 5926 5925 5925 5928 5927 5926 5923 5920 5920 5920 5919 5918 5921 5921 5919 5920 5922 5924 5924 5925 5927 5929 5931 5933 5934 5935
5912 5914 5914 5914 5915 5916 5916 5917 5917 5918 5919 5919 5920 5920 5919 5920 5919 5920 5920 5925 5924 5925 5927 5926 5928 5925 5919 5919 5922 5922 5921 5925 5924 5921 5921 5922 5924 5925 5928 5929 5931 5933 5936 5936 5937
5911 5913 5914 5914 5915 5916 5916 5916 5916 5917 5918 5919 5920 5920 5920 5921 5920 5920 5922 5922 5924 5923 5926 5927 5929 5925 5925 5924 5926 5924 5925 5926 5924 5925 5925 5925 5926 5927 5928 5930 5931 5934 5937 5938 5940
5910 5912 5913 5914 5915 5915 5916 5916 5916 5917 5918 5919 5920 5920 5920 5920 5921 5921 5921 5921 5922 5925 5925 5930 5929 5927 5927 5928 5928 5928 5927 5929 5927 5928 5929 5930 5929 5928 5928 5930 5932 5935 5938 5940 5943
5908 5910 5911 5913 5914 5915 5915 5916 5916 5917 5918 5918 5919 5919 5920 5920 5921 5921 5922 5921 5920 5922 5926 5926 5925 5925 5927 5930 5929 5928 5929 5932 5930 5928 5929 5929 5928 5929 5928 5931 5933 5935 5937 5940 5942
5906 5908 5909 5911 5912 5913 5914 5915 5915 5916 5918 5918 5919 5920 5920 5920 5920 5921 5921 5921 5922 5924 5925 5927 5927 5928 5929 5929 5930 5930 5928 5931 5929 5930 5929 5932 5933 5933 5932 5931 5933 5936 5938 5940 5941
5903 5905 5906 5908 5909 5911 5912 5913 5915 5915 5915 5918 5918 5917 5918 5919 5919 5920 5921 5922 5922 5924 5922 5927 5927 5927 5929 5931 5932 5932 5932 5928 5927 5930 5933 5935 5935 5936 5936 5935 5933 5935 5937 5939 5940
5901 5902 5903 5905 5906 5907 5908 5909 5910 5912 5912 5914 5916 5916 5916 5916 5918 5918 5920 5921 5921 5922 5922 5927 5928 5927 5928 5928 5932 5931 5932 5930 5928 5929 5934 5933 5932 5938 5937 5937 5933 5933 5935 5938 5939
5899 5900 5901 5902 5903 5904 5905 5907 5908 5909 5911 5911 5912 5913 5915 5915 5915 5917 5918 5919 5919 5920 5921 5923 5925 5927 5929 5929 5931 5930 5930 5932 5931 5928 5933 5934 5937 5937 5939 5938 5935 5932 5933 5936 5938
5899 5899 5900 5901 5903 5902 5904 5905 5906 5907 5909 5910 5910 5910 5912 5912 5913 5915 5917 5918 5919 5920 5921 5923 5923 5923 5925 5929 5930 5929 5930 5930 5930 5931 5930 5933 5935 5936 5937 5935 5935 5934 5930 5933 5937
5896 5897 5898 5899 5900 5901 5903 5903 5906 5907 5908 5910 5909 5910 5910 5911 5912 5913 5914 5917 5917 5919 5922 5922 5920 5921 5921 5927 5927 5928 5928 5929 5930 5931 5930 5931 5932 5933 5933 5933 5935 5935 5934 5932 5933
5894 5895 5896 5897 5898 5899 5901 5903 5905 5908 5906 5907 5908 5907 5908 5909 5909 5911 5912 5915 5916 5917 5920 5922 5921 5921 5922 5924 5927 5928 5928 5929 5930 5931 5932 5931 5932 5930 5930 5932 5931 5933 5934 5934 5935
5890 5892 5893 5894 5895 5896 5898 5901 5904 5903 5905 5905 5906 5906 5907 5908 5909 5909 5911 5912 5914 5916 5917 5918 5919 5920 5922 5923 5925 5928 5929 5929 5930 5931 5932 5931 5930 5927 5929 5929 5930 5932 5935 5937 5937
5886 5888 5889 5891 5892 5894 5897 5899 5899 5899 5899 5902 5902 5904 5906 5907 5909 5908 5910 5911 5912 5914 5916 5917 5920 5919 5921 5923 5924 5926 5926 5928 5928 5928 5929 5927 5926 5929 5930 5931 5931 5932 5934 5935 5937
5881 5883 5885 5887 5888 5891 5894 5896 5895 5896 5897 5898 5899 5903 5904 5906 5907 5909 5909 5910 5911 5914 5915 5916 5918 5919 5921 5921 5924 5926 5927 5926 5929 5927 5927 5926 5927 5927 5928 5927 5929 5930 5930 5931 5933
5875 5877 5879 5881 5884 5886 5889 5892 5891 5893 5894 5894 5896 5899 5899 5900 5902 5904 5907 5909 5910 5912 5913 5914 5916 5917 5918 5921 5922 5924 5925 5926 5928 5927 5926 5926 5925 5924 5925 5925 5925 5925 5926 5929 5930
5868 5870 5872 5875 5878 5881 5884 5888 5887 5889 5891 5890 5891 5893 5897 5897 5898 5899 5901 5906 5907 5909 5910 5910 5913 5913 5916 5917 5919 5921 5923 5923 5924 5925 5925 5924 5923 5922 5921 5922 5922 5924 5926 5928 5929
5861 5862 5863 5867 5870 5873 5877 5881 5881 5881 5885 5885 5887 5890 5891 5893 5895 5895 5896 5898 5901 5904 5904 5907 5910 5911 5914 5915 5915 5916 5918 5919 5919 5921 5921 5921 5922 5920 5920 5920 5921 5921 5921 5922 5923
5851 5854 5856 5857 5860 5864 5867 5870 5871 5872 5872 5879 5883 5885 5887 5889 5893 5891 5893 5894 5897 5898 5899 5902 5905 5908 5910 5913 5911 5913 5911 5911 5913 5916 5917 5916 5918 5918 5918 5917 5917 5917 5916 5917 5919
5842 5844 5849 5851 5853 5855 5858 5863 5864 5865 5865 5867 5875 5879 5880 5884 5887 5886 5889 5888 5890 5892 5893 5894 5896 5901 5905 5906 5907 5907 5908 5907 5907 5909 5912 5911 5911 5913 5914 5914 5913 5914 5914 5915 5915
5834 5838 5843 5845 5846 5849 5851 5854 5855 5856 5857 5859 5863 5869 5872 5875 5876 5879 5882 5883 5886 5886 5886 5889 5892 5895 5898 5899 5900 5903 5903 5902 5901 5902 5903 5906 5906 5908 5908 5910 5911 5912 5913 5913 5914
5827 5830 5834 5835 5837 5841 5843 5845 5846 5846 5850 5853 5858 5862 5865 5869 5872 5874 5877 5878 5878 5881 5882 5882 5886 5890 5892 5893 5893 5898 5897 5895 5897 5897 5896 5900 5900 5898 5899 5903 5904 5905 5907 5908 5908
5819 5821 5825 5826 5829 5834 5834 5835 5839 5837 5841 5846 5850 5855 5858 5861 5864 5867 5868 5869 5870 5871 5872 5875 5878 5882 5884 5885 5885 5888 5887 5888 5889 5889 5888 5891 5893 5891 5891 5894 5897 5898 5899 5898 5899